Weather History for Stevens Point, WI

Change the Weather History Date:

Tuesday, January 28, 2014

  Actual Average Record
Temperature  
Mean Temperature -11 °F -  
Max Temperature -2 °F 22 °F 44 °F (2008)
Min Temperature -20 °F 5 °F -28 °F (1952)
Degree Days  
Heating Degree Days 76    
Moisture  
Dew Point -20 °F    
Average Humidity 65    
Maximum Humidity 75    
Minimum Humidity 51    
Precipitation  
Precipitation 0.00 in - - ()
Sea Level Pressure  
Sea Level Pressure 30.16 in    
Wind  
Wind Speed 9 mph (WSW)    
Max Wind Speed 14 mph    
Max Gust Speed 22 mph    
Visibility 10 miles    
Events      
Averages and records for this station are not official NWS values.
T = Trace of Precipitation, MM = Missing Value Source: NWS Daily Summary

Daily Weather History Graph

Daily Weather History Graph

Search for Another Location

Airport:

Trip Planner

Search our weather history database for the weather conditions in past years. The results will help you decide how hot, cold, wet, or windy it might be!

Date:

Astronomy

Jan. 28, 2014 Rise Set
Actual Time 7:21 AM CST 5:01 PM CST
Civil Twilight 6:49 AM CST 5:33 PM CST
Nautical Twilight 6:14 AM CST 6:08 PM CST
Astronomical Twilight 5:40 AM CST 6:42 PM CST
Moon 5:04 AM CST (1/28) 2:50 PM CST (1/28)
Length of Visible Light 10h 43m
Length of Day
9h 40m
Waning Crescent, 7% of the Moon is Illuminated
Jan 28
Waning Crescent
Jan 30
New
Feb 6
First Quarter
Feb 14
Full
Feb 22
Last Quarter

Hourly Weather History & Observations

Time (CST) Temp. Windchill Dew Point Humidity Pressure Visibility Wind Dir Wind Speed Gust Speed Precip Events Conditions
12:15 AM -15.9 °F -33.5 °F -23.8 °F 67% 30.26 in 10.0 mi West 8.1 mph - N/A   Clear
12:35 AM -16.2 °F -30.8 °F -24.0 °F 68% 30.26 in 10.0 mi West 5.8 mph - N/A   Clear
12:55 AM -16.6 °F -32.9 °F -24.0 °F 69% 30.26 in 10.0 mi West 6.9 mph - N/A   Clear
1:15 AM -16.6 °F -32.9 °F -24.0 °F 69% 30.25 in 10.0 mi West 6.9 mph - N/A   Clear
1:35 AM -16.8 °F -33.2 °F -24.0 °F 70% 30.25 in 10.0 mi WSW 6.9 mph - N/A   Clear
1:55 AM -17.1 °F -31.9 °F -24.2 °F 70% 30.25 in 10.0 mi West 5.8 mph - N/A   Clear
2:15 AM -17.3 °F -35.3 °F -24.0 °F 72% 30.24 in 10.0 mi WSW 8.1 mph - N/A   Clear
2:35 AM -17.5 °F -35.5 °F -24.2 °F 72% 30.25 in 10.0 mi West 8.1 mph - N/A   Clear
2:55 AM -17.7 °F -32.5 °F -24.5 °F 71% 30.25 in 10.0 mi West 5.8 mph - N/A   Clear
3:15 AM -17.9 °F -32.8 °F -24.7 °F 71% 30.25 in 10.0 mi WSW 5.8 mph - N/A   Clear
3:35 AM -18.8 °F -35.5 °F -24.9 °F 74% 30.24 in 10.0 mi WSW 6.9 mph - N/A   Clear
3:55 AM -19.3 °F -36.2 °F -25.1 °F 75% 30.24 in 10.0 mi WSW 6.9 mph - N/A   Clear
4:15 AM -19.7 °F -34.9 °F -25.6 °F 74% 30.24 in 10.0 mi WSW 5.8 mph - N/A   Clear
4:35 AM -19.7 °F -34.9 °F -25.4 °F 75% 30.24 in 10.0 mi WSW 5.8 mph - N/A   Clear
4:55 AM -19.8 °F -33.1 °F -25.6 °F 75% 30.24 in 10.0 mi WSW 4.6 mph - N/A   Clear
5:15 AM -20.2 °F -35.5 °F -25.8 °F 75% 30.23 in 10.0 mi West 5.8 mph - N/A   Clear
5:35 AM -20.2 °F -37.3 °F -25.8 °F 75% 30.23 in 10.0 mi WSW 6.9 mph - N/A   Clear
5:55 AM -20.0 °F -37.1 °F -25.6 °F 75% 30.23 in 10.0 mi WSW 6.9 mph - N/A   Clear
6:15 AM -20.2 °F -40.1 °F -25.8 °F 75% 30.22 in 10.0 mi WSW 9.2 mph - N/A   Clear
6:35 AM -20.2 °F -38.8 °F -25.8 °F 75% 30.22 in 10.0 mi West 8.1 mph - N/A   Clear
6:55 AM -20.2 °F -33.5 °F -25.8 °F 75% 30.23 in 10.0 mi West 4.6 mph - N/A   Clear
7:15 AM -20.6 °F -36.0 °F -26.3 °F 75% 30.24 in 10.0 mi WSW 5.8 mph - N/A   Clear
7:35 AM -20.7 °F -34.1 °F -26.5 °F 75% 30.24 in 10.0 mi WSW 4.6 mph - N/A   Clear
7:55 AM -20.0 °F -35.3 °F -25.6 °F 75% 30.23 in 10.0 mi WSW 5.8 mph - N/A   Clear
8:15 AM -18.8 °F -37.0 °F -24.7 °F 74% 30.23 in 10.0 mi WSW 8.1 mph - N/A   Clear
8:35 AM -17.7 °F -38.2 °F -23.8 °F 74% 30.23 in 10.0 mi WSW 10.4 mph - N/A   Clear
8:55 AM -16.8 °F -38.1 °F -23.1 °F 73% 30.23 in 10.0 mi West 11.5 mph 16.1 mph N/A   Clear
9:15 AM -15.9 °F -36.0 °F -22.5 °F 72% 30.23 in 10.0 mi West 10.4 mph 16.1 mph N/A   Clear
9:35 AM -15.2 °F -33.9 °F -22.0 °F 71% 30.23 in 10.0 mi West 9.2 mph 17.3 mph N/A   Clear
9:55 AM -14.1 °F -34.7 °F -21.3 °F 70% 30.22 in 10.0 mi West 11.5 mph 19.6 mph N/A   Clear
10:15 AM -13.0 °F -35.2 °F -20.6 °F 69% 30.22 in 10.0 mi West 13.8 mph 21.9 mph N/A   Clear
10:35 AM -11.7 °F -33.6 °F -20.2 °F 66% 30.22 in 10.0 mi West 13.8 mph 19.6 mph N/A   Clear
10:55 AM -10.8 °F -28.6 °F -19.8 °F 64% 30.22 in 10.0 mi West 9.2 mph 19.6 mph N/A   Clear
11:15 AM -9.9 °F -27.5 °F -19.3 °F 63% 30.20 in 10.0 mi West 9.2 mph - N/A   Clear
11:35 AM -9.0 °F -28.4 °F -19.3 °F 61% 30.19 in 10.0 mi West 11.5 mph 17.3 mph N/A   Clear
11:55 AM -8.3 °F -27.5 °F -19.1 °F 59% 30.19 in 10.0 mi West 11.5 mph 17.3 mph N/A   Clear
12:15 PM -7.6 °F -25.7 °F -18.4 °F 59% 30.17 in 10.0 mi WSW 10.4 mph - N/A   Clear
12:35 PM -7.2 °F -27.1 °F -18.4 °F 58% 30.16 in 10.0 mi WSW 12.7 mph - N/A   Clear
12:55 PM -6.7 °F -23.5 °F -18.2 °F 57% 30.15 in 10.0 mi West 9.2 mph 17.3 mph N/A   Clear
1:15 PM -5.6 °F -25.8 °F -17.3 °F 57% 30.14 in 10.0 mi WSW 13.8 mph - N/A   Clear
1:35 PM -4.9 °F -24.1 °F -17.1 °F 56% 30.13 in 10.0 mi West 12.7 mph 19.6 mph N/A   Clear
1:55 PM -4.0 °F -23.7 °F -17.1 °F 53% 30.11 in 10.0 mi WSW 13.8 mph 20.7 mph N/A   Clear
2:15 PM -3.1 °F -19.1 °F -16.6 °F 53% 30.11 in 10.0 mi West 9.2 mph 18.4 mph N/A   Clear
2:35 PM -2.6 °F -20.3 °F -16.6 °F 51% 30.11 in 10.0 mi SW 11.5 mph 16.1 mph N/A   Clear
2:55 PM -2.4 °F -21.7 °F -16.6 °F 51% 30.10 in 10.0 mi WSW 13.8 mph 18.4 mph N/A   Clear
3:15 PM -2.6 °F -21.9 °F -16.8 °F 51% 30.10 in 10.0 mi WSW 13.8 mph 21.9 mph N/A   Clear
3:35 PM -2.7 °F -22.1 °F -16.8 °F 51% 30.10 in 10.0 mi WSW 13.8 mph 18.4 mph N/A   Clear
3:55 PM -2.7 °F -22.1 °F -16.6 °F 52% 30.10 in 10.0 mi WSW 13.8 mph 17.3 mph N/A   Clear
4:15 PM -2.7 °F -21.4 °F -16.8 °F 51% 30.10 in 10.0 mi WSW 12.7 mph 19.6 mph N/A   Clear
4:35 PM -2.7 °F -21.4 °F -16.6 °F 52% 30.09 in 10.0 mi WSW 12.7 mph 19.6 mph N/A   Scattered Clouds
4:55 PM -3.1 °F -19.1 °F -16.4 °F 53% 30.09 in 10.0 mi WSW 9.2 mph 17.3 mph N/A   Scattered Clouds
5:15 PM -3.5 °F -19.5 °F -16.1 °F 55% 30.08 in 10.0 mi WSW 9.2 mph - N/A   Scattered Clouds
5:35 PM -3.5 °F -22.3 °F -16.1 °F 55% 30.08 in 10.0 mi WSW 12.7 mph 16.1 mph N/A   Overcast
5:55 PM -3.5 °F -22.3 °F -16.1 °F 55% 30.08 in 10.0 mi WSW 12.7 mph 17.3 mph N/A   Scattered Clouds
6:15 PM -3.6 °F -23.3 °F -16.2 °F 55% 30.08 in 10.0 mi WSW 13.8 mph 20.7 mph N/A   Scattered Clouds
6:35 PM -4.0 °F -23.0 °F -16.1 °F 56% 30.08 in 10.0 mi WSW 12.7 mph 17.3 mph N/A   Mostly Cloudy
6:55 PM -4.4 °F -21.6 °F -16.1 °F 57% 30.07 in 10.0 mi WSW 10.4 mph 18.4 mph N/A   Mostly Cloudy
7:15 PM -4.9 °F -23.2 °F -16.4 °F 58% 30.06 in 10.0 mi WSW 11.5 mph 18.4 mph N/A   Clear
7:35 PM -5.3 °F -23.7 °F -16.4 °F 59% 30.06 in 10.0 mi WSW 11.5 mph 20.7 mph N/A   Clear
7:55 PM -5.8 °F -23.4 °F -16.6 °F 60% 30.06 in 10.0 mi WSW 10.4 mph - N/A   Clear
8:15 PM -6.0 °F -26.3 °F -16.2 °F 61% 30.06 in 10.0 mi West 13.8 mph 19.6 mph N/A   Clear
8:35 PM -6.7 °F -25.5 °F -16.4 °F 63% 30.06 in 10.0 mi WSW 11.5 mph 18.4 mph N/A   Clear
8:55 PM -6.9 °F -26.6 °F -16.1 °F 64% 30.04 in 10.0 mi WSW 12.7 mph 17.3 mph N/A   Clear
9:15 PM -7.2 °F -26.2 °F -16.1 °F 65% 30.04 in 10.0 mi WSW 11.5 mph 20.7 mph N/A   Clear
9:35 PM -7.4 °F -23.2 °F -16.1 °F 66% 30.04 in 10.0 mi WSW 8.1 mph - N/A   Clear
9:55 PM -7.6 °F -25.7 °F -15.9 °F 67% 30.04 in 10.0 mi WSW 10.4 mph 16.1 mph N/A   Clear
10:15 PM -7.8 °F -25.9 °F -15.7 °F 68% 30.03 in 10.0 mi WSW 10.4 mph - N/A   Clear
10:35 PM -8.0 °F -27.1 °F -15.7 °F 69% 30.03 in 10.0 mi WSW 11.5 mph 18.4 mph N/A   Clear
10:55 PM -8.1 °F -25.3 °F -15.5 °F 70% 30.03 in 10.0 mi WSW 9.2 mph 16.1 mph N/A   Clear
11:15 PM -8.5 °F -27.8 °F -15.7 °F 71% 30.03 in 10.0 mi WSW 11.5 mph 17.3 mph N/A   Clear
11:35 PM -8.5 °F -26.8 °F -15.5 °F 71% 30.02 in 10.0 mi WSW 10.4 mph 16.1 mph N/A   Clear
11:55 PM -8.7 °F -25.9 °F -15.7 °F 71% 30.02 in 10.0 mi WSW 9.2 mph - N/A   Clear